Time,TemperatureF,DewpointF,PressureIn,WindDirection,WindDirectionDegrees,WindSpeedMPH,WindSpeedGustMPH,Humidity,HourlyPrecipIn,Conditions,Clouds,dailyrainin,SoftwareType,DateUTC
2013-09-12 00:01:00,79.3,69.5,29.93,SSW,202,0.0,0.0,72,0.00,,---,0.14,VWS V13.01,2013-09-12 04:01:00,
2013-09-12 00:02:00,79.2,70.6,29.92,SSW,202,0.0,0.0,75,0.00,,---,0.14,VWS V13.01,2013-09-12 04:02:00,
2013-09-12 00:07:00,79.3,70.7,29.93,SSW,202,0.0,0.0,75,0.00,,---,0.14,VWS V13.01,2013-09-12 04:07:00,
2013-09-12 00:12:00,79.2,70.6,29.93,SSW,202,0.0,0.0,75,0.00,,---,0.14,VWS V13.01,2013-09-12 04:12:00,
2013-09-12 00:17:00,79.2,70.6,29.93,SSW,202,0.0,0.0,75,0.00,,---,0.14,VWS V13.01,2013-09-12 04:17:00,
2013-09-12 00:22:00,79.0,70.4,29.93,SSW,202,0.0,0.0,75,0.00,,---,0.14,VWS V13.01,2013-09-12 04:22:00,
2013-09-12 00:27:00,79.0,70.4,29.93,SSE,158,0.0,0.0,75,0.00,,---,0.14,VWS V13.01,2013-09-12 04:27:00,
2013-09-12 00:32:00,78.8,70.6,29.92,SSE,158,0.0,0.0,76,0.00,,---,0.14,VWS V13.01,2013-09-12 04:32:00,
2013-09-12 00:37:00,79.0,70.8,29.92,SSE,158,0.0,0.0,76,0.00,,---,0.14,VWS V13.01,2013-09-12 04:37:00,
2013-09-12 00:42:00,79.0,70.8,29.91,SSE,158,0.0,0.0,76,0.00,,---,0.14,VWS V13.01,2013-09-12 04:42:00,
2013-09-12 00:47:00,78.6,70.4,29.91,SSE,158,0.0,0.0,76,0.00,,---,0.14,VWS V13.01,2013-09-12 04:47:00,
2013-09-12 00:52:00,79.0,70.8,29.91,SSE,158,0.0,0.0,76,0.00,,---,0.14,VWS V13.01,2013-09-12 04:52:00,
2013-09-12 00:57:00,78.6,70.4,29.91,SSE,158,0.0,0.0,76,0.00,,---,0.14,VWS V13.01,2013-09-12 04:57:00,
2013-09-12 01:02:00,78.8,70.6,29.90,SSE,158,0.0,0.0,76,0.00,,---,0.14,VWS V13.01,2013-09-12 05:02:00,
2013-09-12 01:07:00,78.8,71.0,29.90,SSE,158,0.0,0.0,77,0.00,,---,0.14,VWS V13.01,2013-09-12 05:07:00,
2013-09-12 01:12:00,78.6,70.8,29.90,SSE,158,0.0,0.0,77,0.00,,---,0.14,VWS V13.01,2013-09-12 05:12:00,
2013-09-12 01:17:00,78.6,70.8,29.91,SSE,158,0.0,0.0,77,0.00,,---,0.14,VWS V13.01,2013-09-12 05:17:00,
2013-09-12 01:22:00,78.4,70.6,29.91,SSE,158,0.0,0.0,77,0.00,,---,0.14,VWS V13.01,2013-09-12 05:22:00,
2013-09-12 01:27:00,78.4,70.6,29.91,SSE,158,0.0,0.0,77,0.00,,---,0.14,VWS V13.01,2013-09-12 05:27:00,
2013-09-12 01:31:00,78.3,70.5,29.91,SSE,158,0.0,0.0,77,0.00,,---,0.14,VWS V13.01,2013-09-12 05:31:00,
2013-09-12 01:36:00,78.3,70.5,29.91,SSE,158,0.0,0.0,77,0.00,,---,0.14,VWS V13.01,2013-09-12 05:36:00,
2013-09-12 01:41:00,78.1,70.3,29.90,SSE,158,0.0,0.0,77,0.00,,---,0.14,VWS V13.01,2013-09-12 05:41:00,
2013-09-12 01:46:00,78.1,70.3,29.90,SSE,158,0.0,0.0,77,0.00,,---,0.14,VWS V13.01,2013-09-12 05:46:00,
2013-09-12 01:51:00,78.1,70.7,29.90,SSE,158,0.0,0.0,78,0.00,,---,0.14,VWS V13.01,2013-09-12 05:51:00,
2013-09-12 01:56:00,77.9,70.1,29.89,SSE,158,0.0,0.0,77,0.00,,---,0.14,VWS V13.01,2013-09-12 05:56:00,
2013-09-12 02:01:00,77.9,70.5,29.89,SSE,158,0.0,0.0,78,0.00,,---,0.14,VWS V13.01,2013-09-12 06:01:00,
2013-09-12 02:06:00,77.7,69.9,29.90,SSE,158,0.0,0.0,77,0.00,,---,0.14,VWS V13.01,2013-09-12 06:06:00,
2013-09-12 02:11:00,77.7,70.3,29.90,SSE,158,0.0,0.0,78,0.00,,---,0.14,VWS V13.01,2013-09-12 06:11:00,
2013-09-12 02:16:00,77.7,70.3,29.90,SSE,158,0.0,0.0,78,0.00,,---,0.14,VWS V13.01,2013-09-12 06:16:00,
2013-09-12 02:21:00,77.7,70.3,29.89,SSE,158,0.0,0.0,78,0.00,,---,0.14,VWS V13.01,2013-09-12 06:21:00,
2013-09-12 02:26:00,77.7,70.3,29.89,SSE,158,0.0,0.0,78,0.00,,---,0.14,VWS V13.01,2013-09-12 06:26:00,
2013-09-12 02:31:00,77.7,70.3,29.89,SSE,158,0.0,0.0,78,0.00,,---,0.14,VWS V13.01,2013-09-12 06:31:00,
2013-09-12 02:36:00,77.7,70.3,29.88,SSE,158,0.0,0.0,78,0.00,,---,0.14,VWS V13.01,2013-09-12 06:36:00,
2013-09-12 02:41:00,77.7,70.3,29.88,SSE,158,0.0,0.0,78,0.00,,---,0.14,VWS V13.01,2013-09-12 06:41:00,
2013-09-12 02:46:00,77.7,70.3,29.88,SSE,158,0.0,0.0,78,0.00,,---,0.14,VWS V13.01,2013-09-12 06:46:00,
2013-09-12 02:51:00,77.5,70.1,29.88,SSE,158,0.0,0.0,78,0.00,,---,0.14,VWS V13.01,2013-09-12 06:51:00,
2013-09-12 02:56:00,77.7,70.3,29.88,SSE,158,0.0,0.0,78,0.00,,---,0.14,VWS V13.01,2013-09-12 06:56:00,
2013-09-12 03:01:00,77.5,70.1,29.88,SSE,158,0.0,0.0,78,0.00,,---,0.14,VWS V13.01,2013-09-12 07:01:00,
2013-09-12 03:06:00,77.5,70.1,29.88,SSE,158,0.0,0.0,78,0.00,,---,0.14,VWS V13.01,2013-09-12 07:06:00,
2013-09-12 03:11:00,77.5,70.1,29.88,SSE,158,0.0,0.0,78,0.00,,---,0.14,VWS V13.01,2013-09-12 07:11:00,
2013-09-12 03:16:00,77.4,70.0,29.88,SSE,158,0.0,0.0,78,0.00,,---,0.14,VWS V13.01,2013-09-12 07:16:00,
2013-09-12 03:21:00,77.4,70.0,29.88,SSE,158,0.0,0.0,78,0.00,,---,0.14,VWS V13.01,2013-09-12 07:21:00,
2013-09-12 03:26:00,77.4,70.0,29.88,SSE,158,0.0,0.0,78,0.00,,---,0.14,VWS V13.01,2013-09-12 07:26:00,
2013-09-12 03:31:00,77.4,70.0,29.87,SSE,158,0.0,0.0,78,0.00,,---,0.14,VWS V13.01,2013-09-12 07:31:00,
2013-09-12 03:36:00,77.4,70.0,29.87,SSE,158,0.0,0.0,78,0.00,,---,0.14,VWS V13.01,2013-09-12 07:36:00,
2013-09-12 03:41:00,77.4,70.3,29.87,SSE,158,0.0,0.0,79,0.00,,---,0.14,VWS V13.01,2013-09-12 07:41:00,
2013-09-12 03:46:00,77.4,70.3,29.87,SSE,158,0.0,0.0,79,0.00,,---,0.14,VWS V13.01,2013-09-12 07:46:00,
2013-09-12 03:51:00,77.4,70.3,29.87,SSE,158,0.0,0.0,79,0.00,,---,0.14,VWS V13.01,2013-09-12 07:51:00,
2013-09-12 03:56:00,77.4,70.3,29.87,SSE,158,0.0,0.0,79,0.00,,---,0.14,VWS V13.01,2013-09-12 07:56:00,
2013-09-12 04:01:00,77.4,70.3,29.87,SSE,158,0.0,0.0,79,0.00,,---,0.14,VWS V13.01,2013-09-12 08:01:00,
2013-09-12 04:06:00,77.4,70.3,29.87,SSE,158,0.0,0.0,79,0.00,,---,0.14,VWS V13.01,2013-09-12 08:06:00,
2013-09-12 04:11:00,77.2,70.2,29.87,SSE,158,0.0,0.0,79,0.00,,---,0.14,VWS V13.01,2013-09-12 08:11:00,
2013-09-12 04:16:00,77.2,70.2,29.87,SSE,158,0.0,0.0,79,0.00,,---,0.14,VWS V13.01,2013-09-12 08:16:00,
2013-09-12 04:21:00,77.0,70.0,29.87,SSE,158,0.0,0.0,79,0.00,,---,0.14,VWS V13.01,2013-09-12 08:21:00,
2013-09-12 04:26:00,77.0,70.0,29.87,SSE,158,0.0,0.0,79,0.00,,---,0.14,VWS V13.01,2013-09-12 08:26:00,
2013-09-12 04:31:00,77.0,70.0,29.87,SSE,158,0.0,0.0,79,0.00,,---,0.14,VWS V13.01,2013-09-12 08:31:00,
2013-09-12 04:36:00,76.8,69.8,29.87,SSE,158,0.0,0.0,79,0.00,,---,0.14,VWS V13.01,2013-09-12 08:36:00,
2013-09-12 04:41:00,76.8,69.8,29.87,SSE,158,0.0,0.0,79,0.00,,---,0.14,VWS V13.01,2013-09-12 08:41:00,
2013-09-12 04:46:00,76.8,69.8,29.87,SSE,158,0.0,0.0,79,0.00,,---,0.14,VWS V13.01,2013-09-12 08:46:00,
2013-09-12 04:51:00,76.8,70.2,29.87,SSE,158,0.0,0.0,80,0.00,,---,0.14,VWS V13.01,2013-09-12 08:51:00,
2013-09-12 04:56:00,76.6,70.0,29.87,SSE,158,0.0,0.0,80,0.00,,---,0.14,VWS V13.01,2013-09-12 08:56:00,
2013-09-12 05:01:00,76.6,70.0,29.87,SSE,158,0.0,0.0,80,0.00,,---,0.14,VWS V13.01,2013-09-12 09:01:00,
2013-09-12 05:06:00,76.6,70.0,29.87,SSE,158,0.0,0.0,80,0.00,,---,0.14,VWS V13.01,2013-09-12 09:06:00,
2013-09-12 05:11:00,76.6,70.0,29.88,SSE,158,0.0,0.0,80,0.00,,---,0.14,VWS V13.01,2013-09-12 09:11:00,
2013-09-12 05:16:00,76.6,70.0,29.88,SSE,158,0.0,0.0,80,0.00,,---,0.14,VWS V13.01,2013-09-12 09:16:00,
2013-09-12 05:21:00,76.6,70.0,29.87,SSE,158,0.0,0.0,80,0.00,,---,0.14,VWS V13.01,2013-09-12 09:21:00,
2013-09-12 05:26:00,76.6,70.0,29.87,SSE,158,0.0,0.0,80,0.00,,---,0.14,VWS V13.01,2013-09-12 09:26:00,
2013-09-12 05:31:00,76.6,70.0,29.87,SSE,158,0.0,0.0,80,0.00,,---,0.14,VWS V13.01,2013-09-12 09:31:00,
2013-09-12 05:36:00,76.6,70.0,29.87,SSE,158,0.0,0.0,80,0.00,,---,0.14,VWS V13.01,2013-09-12 09:36:00,
2013-09-12 05:41:00,76.6,70.4,29.87,SSE,158,0.0,0.0,81,0.00,,---,0.14,VWS V13.01,2013-09-12 09:41:00,
2013-09-12 05:46:00,76.6,70.4,29.87,SSE,158,0.0,0.0,81,0.00,,---,0.14,VWS V13.01,2013-09-12 09:46:00,
2013-09-12 05:51:00,76.6,70.4,29.88,SSE,158,0.0,0.0,81,0.00,,---,0.14,VWS V13.01,2013-09-12 09:51:00,
2013-09-12 05:56:00,76.6,70.4,29.88,SSE,158,0.0,0.0,81,0.00,,---,0.14,VWS V13.01,2013-09-12 09:56:00,
2013-09-12 06:01:00,76.8,70.9,29.88,SSE,158,0.0,0.0,82,0.00,,---,0.14,VWS V13.01,2013-09-12 10:01:00,
2013-09-12 06:06:00,76.6,70.7,29.88,SSE,158,0.0,0.0,82,0.00,,---,0.14,VWS V13.01,2013-09-12 10:06:00,
2013-09-12 06:11:00,76.6,70.7,29.89,SSE,158,0.0,0.0,82,0.00,,---,0.14,VWS V13.01,2013-09-12 10:11:00,
2013-09-12 06:16:00,76.6,70.7,29.89,SSE,158,0.0,0.0,82,0.00,,---,0.14,VWS V13.01,2013-09-12 10:16:00,
2013-09-12 06:21:00,76.6,70.7,29.89,SSE,158,0.0,0.0,82,0.00,,---,0.14,VWS V13.01,2013-09-12 10:21:00,
2013-09-12 06:26:00,76.8,70.9,29.89,SSE,158,0.0,0.0,82,0.00,,---,0.14,VWS V13.01,2013-09-12 10:26:00,
2013-09-12 06:31:00,76.8,70.9,29.89,SSE,158,0.0,0.0,82,0.00,,---,0.14,VWS V13.01,2013-09-12 10:31:00,
2013-09-12 06:36:00,76.8,70.9,29.89,SSE,158,0.0,0.0,82,0.00,,---,0.14,VWS V13.01,2013-09-12 10:36:00,
2013-09-12 06:41:00,76.8,70.9,29.89,SSE,158,0.0,0.0,82,0.00,,---,0.14,VWS V13.01,2013-09-12 10:41:00,
2013-09-12 06:46:00,76.8,71.3,29.89,SSE,158,0.0,0.0,83,0.00,,---,0.14,VWS V13.01,2013-09-12 10:46:00,
2013-09-12 06:51:00,77.0,71.4,29.89,SSE,158,0.0,0.0,83,0.00,,---,0.14,VWS V13.01,2013-09-12 10:51:00,
2013-09-12 06:56:00,76.8,71.3,29.88,SSE,158,0.0,0.0,83,0.00,,---,0.14,VWS V13.01,2013-09-12 10:56:00,
2013-09-12 07:01:00,77.0,71.4,29.88,SSE,158,0.0,0.0,83,0.00,,---,0.14,VWS V13.01,2013-09-12 11:01:00,
2013-09-12 07:06:00,77.0,71.4,29.88,SSE,158,0.0,0.0,83,0.00,,---,0.14,VWS V13.01,2013-09-12 11:06:00,
2013-09-12 07:11:00,77.0,71.4,29.88,SSE,158,0.0,0.0,83,0.00,,---,0.14,VWS V13.01,2013-09-12 11:11:00,
2013-09-12 07:16:00,76.8,71.3,29.88,SSE,158,0.0,0.0,83,0.00,,---,0.14,VWS V13.01,2013-09-12 11:16:00,
2013-09-12 07:21:00,77.0,71.4,29.88,SSE,158,0.0,0.0,83,0.00,,---,0.14,VWS V13.01,2013-09-12 11:21:00,
2013-09-12 07:26:00,76.8,71.3,29.89,SSE,158,0.0,0.0,83,0.00,,---,0.14,VWS V13.01,2013-09-12 11:26:00,
2013-09-12 07:31:00,77.0,71.8,29.88,SSE,158,0.0,0.0,84,0.00,,---,0.14,VWS V13.01,2013-09-12 11:31:00,
2013-09-12 07:36:00,77.0,71.8,29.88,SSE,158,0.0,0.0,84,0.00,,---,0.14,VWS V13.01,2013-09-12 11:36:00,
2013-09-12 07:41:00,77.2,72.0,29.88,SSE,158,0.0,0.0,84,0.00,,---,0.14,VWS V13.01,2013-09-12 11:41:00,
2013-09-12 07:46:00,77.4,72.2,29.88,SSE,158,0.0,0.0,84,0.00,,---,0.14,VWS V13.01,2013-09-12 11:46:00,
2013-09-12 07:51:00,77.4,72.2,29.89,ESE,112,0.0,0.0,84,0.00,,---,0.14,VWS V13.01,2013-09-12 11:51:00,
2013-09-12 07:56:00,77.5,72.3,29.89,ESE,112,0.0,0.0,84,0.00,,---,0.14,VWS V13.01,2013-09-12 11:56:00,
2013-09-12 08:01:00,77.7,72.8,29.89,NNW,338,0.0,0.0,85,0.00,,---,0.14,VWS V13.01,2013-09-12 12:01:00,
2013-09-12 08:06:00,77.9,72.7,29.89,NNW,338,0.0,0.0,84,0.00,,---,0.14,VWS V13.01,2013-09-12 12:06:00,
2013-09-12 08:11:00,78.3,73.0,29.90,NNW,338,0.0,0.0,84,0.00,,---,0.14,VWS V13.01,2013-09-12 12:11:00,
2013-09-12 08:16:00,78.3,73.0,29.90,NNW,338,0.0,0.0,84,0.00,,---,0.14,VWS V13.01,2013-09-12 12:16:00,
2013-09-12 08:21:00,78.4,73.2,29.90,NNW,338,0.0,0.0,84,0.00,,---,0.14,VWS V13.01,2013-09-12 12:21:00,
2013-09-12 08:26:00,78.6,73.4,29.90,NNW,338,0.0,0.0,84,0.00,,---,0.14,VWS V13.01,2013-09-12 12:26:00,
2013-09-12 08:31:00,79.0,73.7,29.90,NNW,338,0.0,0.0,84,0.00,,---,0.14,VWS V13.01,2013-09-12 12:31:00,
2013-09-12 08:36:00,79.0,73.7,29.91,NNW,338,0.0,0.0,84,0.00,,---,0.14,VWS V13.01,2013-09-12 12:36:00,
2013-09-12 08:41:00,79.2,73.9,29.91,SW,225,0.0,0.0,84,0.00,,---,0.14,VWS V13.01,2013-09-12 12:41:00,
2013-09-12 08:46:00,79.2,73.9,29.91,SW,225,0.0,0.0,84,0.00,,---,0.14,VWS V13.01,2013-09-12 12:46:00,
2013-09-12 08:51:00,79.3,74.1,29.91,SW,225,0.0,0.0,84,0.00,,---,0.14,VWS V13.01,2013-09-12 12:51:00,
2013-09-12 08:56:00,79.7,74.4,29.91,SW,225,0.0,0.0,84,0.00,,---,0.14,VWS V13.01,2013-09-12 12:56:00,
2013-09-12 09:01:00,79.7,74.1,29.91,SW,225,0.0,0.0,83,0.00,,---,0.14,VWS V13.01,2013-09-12 13:01:00,
2013-09-12 09:06:00,80.1,74.4,29.91,SW,225,0.0,0.0,83,0.00,,---,0.14,VWS V13.01,2013-09-12 13:06:00,
2013-09-12 09:11:00,80.2,74.6,29.91,NNE,22,0.0,0.0,83,0.00,,---,0.14,VWS V13.01,2013-09-12 13:11:00,
2013-09-12 09:16:00,80.4,74.8,29.91,NNE,22,0.0,0.0,83,0.00,,---,0.14,VWS V13.01,2013-09-12 13:16:00,
2013-09-12 09:21:00,80.8,75.1,29.91,NNE,22,0.0,0.0,83,0.00,,---,0.14,VWS V13.01,2013-09-12 13:21:00,
2013-09-12 09:26:00,80.8,74.8,29.91,NNE,22,0.0,0.0,82,0.00,,---,0.14,VWS V13.01,2013-09-12 13:26:00,
2013-09-12 09:31:00,81.3,75.3,29.91,NNE,22,0.0,0.0,82,0.00,,---,0.14,VWS V13.01,2013-09-12 13:31:00,
2013-09-12 09:36:00,81.5,75.1,29.91,NNE,22,0.0,0.0,81,0.00,,---,0.14,VWS V13.01,2013-09-12 13:36:00,
2013-09-12 09:41:00,81.5,74.7,29.91,NNE,22,0.0,0.0,80,0.00,,---,0.14,VWS V13.01,2013-09-12 13:41:00,
2013-09-12 09:46:00,81.7,74.5,29.91,NNE,22,0.0,0.0,79,0.00,,---,0.14,VWS V13.01,2013-09-12 13:46:00,
2013-09-12 09:51:00,81.7,74.5,29.91,NNE,22,0.0,0.0,79,0.00,,---,0.14,VWS V13.01,2013-09-12 13:51:00,
2013-09-12 09:56:00,81.9,74.3,29.91,NE,45,0.0,0.0,78,0.00,,---,0.14,VWS V13.01,2013-09-12 13:56:00,
2013-09-12 10:01:00,82.0,74.5,29.91,NE,45,0.0,0.0,78,0.00,,---,0.14,VWS V13.01,2013-09-12 14:01:00,
2013-09-12 10:06:00,82.4,74.5,29.91,NE,45,0.0,0.0,77,0.00,,---,0.14,VWS V13.01,2013-09-12 14:06:00,
2013-09-12 10:11:00,82.4,74.5,29.91,NE,45,0.0,0.0,77,0.00,,---,0.14,VWS V13.01,2013-09-12 14:11:00,
2013-09-12 10:16:00,82.4,74.1,29.91,NE,45,0.0,0.0,76,0.00,,---,0.14,VWS V13.01,2013-09-12 14:16:00,
2013-09-12 10:21:00,82.6,74.2,29.91,NE,45,0.0,0.0,76,0.00,,---,0.14,VWS V13.01,2013-09-12 14:21:00,
2013-09-12 10:26:00,82.8,74.4,29.91,NE,45,0.0,0.0,76,0.00,,---,0.14,VWS V13.01,2013-09-12 14:26:00,
2013-09-12 10:31:00,82.8,74.4,29.91,NE,45,0.0,0.0,76,0.00,,---,0.14,VWS V13.01,2013-09-12 14:31:00,
2013-09-12 10:36:00,83.1,74.8,29.91,NE,45,0.0,0.0,76,0.00,,---,0.14,VWS V13.01,2013-09-12 14:36:00,
2013-09-12 10:41:00,83.5,74.7,29.91,NE,45,0.0,0.0,75,0.00,,---,0.14,VWS V13.01,2013-09-12 14:41:00,
2013-09-12 10:46:00,83.7,74.5,29.91,NE,45,0.0,0.0,74,0.00,,---,0.14,VWS V13.01,2013-09-12 14:46:00,
2013-09-12 10:51:00,83.8,74.7,29.91,NE,45,0.0,0.0,74,0.00,,---,0.14,VWS V13.01,2013-09-12 14:51:00,
2013-09-12 10:56:00,83.8,74.7,29.91,NE,45,0.0,0.0,74,0.00,,---,0.14,VWS V13.01,2013-09-12 14:56:00,
2013-09-12 11:01:00,84.2,75.0,29.91,SE,135,0.0,0.0,74,0.00,,---,0.00,VWS V13.01,2013-09-12 15:01:00,
2013-09-12 11:06:00,84.0,74.4,29.90,SE,135,0.0,0.0,73,0.00,,---,0.00,VWS V13.01,2013-09-12 15:06:00,
2013-09-12 11:11:00,84.2,74.6,29.91,ESE,112,0.0,0.0,73,0.00,,---,0.00,VWS V13.01,2013-09-12 15:11:00,
2013-09-12 11:16:00,83.8,73.8,29.91,SE,135,0.0,0.0,72,0.00,,---,0.00,VWS V13.01,2013-09-12 15:16:00,
2013-09-12 11:21:00,83.8,72.6,29.91,SE,135,0.0,0.0,69,0.00,,---,0.00,VWS V13.01,2013-09-12 15:21:00,
2013-09-12 11:26:00,83.8,71.7,29.91,SE,135,0.0,0.0,67,0.00,,---,0.00,VWS V13.01,2013-09-12 15:26:00,
2013-09-12 11:31:00,83.8,71.3,29.91,ESE,112,0.0,0.0,66,0.00,,---,0.00,VWS V13.01,2013-09-12 15:31:00,
2013-09-12 11:36:00,83.8,70.8,29.91,SE,135,0.0,0.0,65,0.00,,---,0.00,VWS V13.01,2013-09-12 15:36:00,
2013-09-12 11:41:00,84.0,71.0,29.90,SE,135,0.0,0.0,65,0.00,,---,0.00,VWS V13.01,2013-09-12 15:41:00,
2013-09-12 11:46:00,84.4,71.8,29.90,SE,135,0.0,0.0,66,0.00,,---,0.00,VWS V13.01,2013-09-12 15:46:00,
2013-09-12 11:51:00,84.6,72.0,29.90,SE,135,0.0,0.0,66,0.00,,---,0.00,VWS V13.01,2013-09-12 15:51:00,
2013-09-12 11:56:00,84.6,72.4,29.90,ESE,112,0.0,0.0,67,0.00,,---,0.00,VWS V13.01,2013-09-12 15:56:00,
2013-09-12 12:01:00,84.7,72.6,29.90,SE,135,0.0,0.0,67,0.00,,---,0.00,VWS V13.01,2013-09-12 16:01:00,
2013-09-12 12:06:00,84.7,72.6,29.90,South,180,0.0,0.0,67,0.00,,---,0.00,VWS V13.01,2013-09-12 16:06:00,
2013-09-12 12:11:00,84.7,72.6,29.90,SE,135,0.0,0.0,67,0.00,,---,0.00,VWS V13.01,2013-09-12 16:11:00,
2013-09-12 12:16:00,84.7,72.6,29.90,SE,135,0.0,0.0,67,0.00,,---,0.00,VWS V13.01,2013-09-12 16:16:00,
2013-09-12 12:21:00,84.7,72.6,29.90,SSE,158,0.0,0.0,67,0.00,,---,0.00,VWS V13.01,2013-09-12 16:21:00,
2013-09-12 12:26:00,85.1,72.9,29.90,SSE,158,0.0,0.0,67,0.00,,---,0.00,VWS V13.01,2013-09-12 16:26:00,
2013-09-12 12:31:00,85.5,73.3,29.89,ESE,112,0.0,0.0,67,0.00,,---,0.00,VWS V13.01,2013-09-12 16:31:00,
2013-09-12 12:36:00,85.6,73.0,29.89,SSE,158,0.0,0.0,66,0.00,,---,0.00,VWS V13.01,2013-09-12 16:36:00,
2013-09-12 12:41:00,85.6,73.0,29.89,SSE,158,0.0,0.0,66,0.00,,---,0.00,VWS V13.01,2013-09-12 16:41:00,
2013-09-12 12:46:00,86.0,73.3,29.89,ESE,112,0.0,0.0,66,0.00,,---,0.00,VWS V13.01,2013-09-12 16:46:00,
2013-09-12 12:51:00,86.2,73.0,29.88,ESE,112,0.0,0.0,65,0.00,,---,0.00,VWS V13.01,2013-09-12 16:51:00,
2013-09-12 12:56:00,86.4,73.2,29.88,ESE,112,0.0,0.0,65,0.00,,---,0.00,VWS V13.01,2013-09-12 16:56:00,
2013-09-12 13:01:00,86.4,72.8,29.88,NE,45,0.0,0.0,64,0.00,,---,0.00,VWS V13.01,2013-09-12 17:01:00,
2013-09-12 13:06:00,86.7,72.6,29.88,NNE,22,0.0,0.0,63,0.00,,---,0.00,VWS V13.01,2013-09-12 17:06:00,
2013-09-12 13:11:00,86.9,71.8,29.88,NNE,22,0.0,0.0,61,0.00,,---,0.00,VWS V13.01,2013-09-12 17:11:00,
2013-09-12 13:16:00,87.1,72.0,29.88,SSE,158,0.0,0.0,61,0.00,,---,0.00,VWS V13.01,2013-09-12 17:16:00,
2013-09-12 13:21:00,87.1,71.5,29.88,SSE,158,0.0,0.0,60,0.00,,---,0.00,VWS V13.01,2013-09-12 17:21:00,
2013-09-12 13:26:00,87.3,71.7,29.87,ESE,112,0.0,0.0,60,0.00,,---,0.00,VWS V13.01,2013-09-12 17:26:00,
2013-09-12 13:31:00,87.1,71.0,29.88,ESE,112,0.0,0.0,59,0.00,,---,0.00,VWS V13.01,2013-09-12 17:31:00,
2013-09-12 13:36:00,86.9,70.9,29.88,SE,135,0.0,0.0,59,0.00,,---,0.00,VWS V13.01,2013-09-12 17:36:00,
2013-09-12 13:41:00,86.7,71.2,29.88,SE,135,0.0,0.0,60,0.00,,---,0.00,VWS V13.01,2013-09-12 17:41:00,
2013-09-12 13:46:00,86.7,71.2,29.88,South,180,0.0,0.0,60,0.00,,---,0.00,VWS V13.01,2013-09-12 17:46:00,
2013-09-12 13:51:00,86.4,70.8,29.87,SSE,158,0.0,0.0,60,0.00,,---,0.00,VWS V13.01,2013-09-12 17:51:00,
2013-09-12 13:56:00,86.2,70.7,29.88,SE,135,0.0,0.0,60,0.00,,---,0.00,VWS V13.01,2013-09-12 17:56:00,
2013-09-12 14:01:00,86.2,70.7,29.87,SE,135,0.0,0.0,60,0.00,,---,0.00,VWS V13.01,2013-09-12 18:01:00,
2013-09-12 14:06:00,86.2,71.2,29.88,SE,135,0.0,0.0,61,0.00,,---,0.00,VWS V13.01,2013-09-12 18:06:00,
2013-09-12 14:11:00,86.2,71.2,29.88,SSE,158,0.0,0.0,61,0.00,,---,0.00,VWS V13.01,2013-09-12 18:11:00,
2013-09-12 14:16:00,86.2,70.2,29.87,SSE,158,0.0,0.0,59,0.00,,---,0.00,VWS V13.01,2013-09-12 18:16:00,
2013-09-12 14:21:00,86.2,70.2,29.87,South,180,0.0,0.0,59,0.00,,---,0.00,VWS V13.01,2013-09-12 18:21:00,
2013-09-12 14:26:00,86.2,70.2,29.87,ESE,112,0.0,0.0,59,0.00,,---,0.00,VWS V13.01,2013-09-12 18:26:00,
2013-09-12 14:31:00,86.2,70.7,29.87,SE,135,0.0,0.0,60,0.00,,---,0.00,VWS V13.01,2013-09-12 18:31:00,
2013-09-12 14:36:00,86.2,70.7,29.87,South,180,0.0,0.0,60,0.00,,---,0.00,VWS V13.01,2013-09-12 18:36:00,
2013-09-12 14:41:00,86.2,71.2,29.86,SE,135,0.0,0.0,61,0.00,,---,0.00,VWS V13.01,2013-09-12 18:41:00,
2013-09-12 14:46:00,86.2,70.7,29.86,SSE,158,0.0,0.0,60,0.00,,---,0.00,VWS V13.01,2013-09-12 18:46:00,
2013-09-12 14:51:00,86.2,70.2,29.86,SSE,158,0.0,0.0,59,0.00,,---,0.00,VWS V13.01,2013-09-12 18:51:00,
2013-09-12 14:56:00,86.4,70.8,29.85,SE,135,0.0,0.0,60,0.00,,---,0.00,VWS V13.01,2013-09-12 18:56:00,
2013-09-12 15:01:00,86.2,70.2,29.85,ENE,68,0.0,0.0,59,0.00,,---,0.00,VWS V13.01,2013-09-12 19:01:00,
2013-09-12 15:06:00,86.2,70.7,29.84,ENE,68,0.0,0.0,60,0.00,,---,0.00,VWS V13.01,2013-09-12 19:06:00,
2013-09-12 15:11:00,86.2,70.2,29.84,ESE,112,0.0,0.0,59,0.00,,---,0.00,VWS V13.01,2013-09-12 19:11:00,
2013-09-12 15:16:00,86.2,70.2,29.84,SSE,158,0.0,0.0,59,0.00,,---,0.00,VWS V13.01,2013-09-12 19:16:00,
2013-09-12 15:21:00,86.4,70.3,29.84,ESE,112,0.0,0.0,59,0.00,,---,0.00,VWS V13.01,2013-09-12 19:21:00,
2013-09-12 15:26:00,86.4,70.8,29.84,ESE,112,0.0,0.0,60,0.00,,---,0.00,VWS V13.01,2013-09-12 19:26:00,
2013-09-12 15:31:00,86.7,71.2,29.83,ESE,112,0.0,0.0,60,0.00,,---,0.00,VWS V13.01,2013-09-12 19:31:00,
2013-09-12 15:36:00,86.9,70.9,29.83,SE,135,0.0,0.0,59,0.00,,---,0.00,VWS V13.01,2013-09-12 19:36:00,
2013-09-12 15:41:00,87.3,70.7,29.84,SE,135,0.0,0.0,58,0.00,,---,0.00,VWS V13.01,2013-09-12 19:41:00,
2013-09-12 15:46:00,87.3,70.7,29.83,SSW,202,0.0,0.0,58,0.00,,---,0.00,VWS V13.01,2013-09-12 19:46:00,
2013-09-12 15:51:00,87.4,70.9,29.83,East,90,0.0,0.0,58,0.00,,---,0.00,VWS V13.01,2013-09-12 19:51:00,
2013-09-12 15:56:00,88.0,71.4,29.83,East,90,0.0,0.0,58,0.00,,---,0.00,VWS V13.01,2013-09-12 19:56:00,
2013-09-12 16:01:00,88.0,71.4,29.83,NW,315,0.0,0.0,58,0.00,,---,0.00,VWS V13.01,2013-09-12 20:01:00,
2013-09-12 16:06:00,88.0,71.4,29.82,ENE,68,0.0,0.0,58,0.00,,---,0.00,VWS V13.01,2013-09-12 20:06:00,
2013-09-12 16:11:00,87.6,71.0,29.81,ENE,68,0.0,0.0,58,0.00,,---,0.00,VWS V13.01,2013-09-12 20:11:00,
2013-09-12 16:16:00,87.6,71.0,29.81,SE,135,0.0,0.0,58,0.00,,---,0.00,VWS V13.01,2013-09-12 20:16:00,
2013-09-12 16:21:00,87.6,71.0,29.81,SE,135,0.0,0.0,58,0.00,,---,0.00,VWS V13.01,2013-09-12 20:21:00,
2013-09-12 16:26:00,87.6,71.0,29.81,ESE,112,0.0,0.0,58,0.00,,---,0.00,VWS V13.01,2013-09-12 20:26:00,
2013-09-12 16:31:00,87.4,70.9,29.81,SE,135,0.0,0.0,58,0.00,,---,0.00,VWS V13.01,2013-09-12 20:31:00,
2013-09-12 16:36:00,87.3,70.2,29.81,ESE,112,0.0,0.0,57,0.00,,---,0.00,VWS V13.01,2013-09-12 20:36:00,
2013-09-12 16:41:00,87.1,70.0,29.81,ESE,112,0.0,0.0,57,0.00,,---,0.00,VWS V13.01,2013-09-12 20:41:00,
2013-09-12 16:46:00,87.3,70.2,29.81,SSE,158,0.0,0.0,57,0.00,,---,0.00,VWS V13.01,2013-09-12 20:46:00,
2013-09-12 16:51:00,87.1,70.5,29.81,SE,135,0.0,0.0,58,0.00,,---,0.00,VWS V13.01,2013-09-12 20:51:00,
2013-09-12 16:56:00,87.1,70.5,29.81,ENE,68,0.0,0.0,58,0.00,,---,0.00,VWS V13.01,2013-09-12 20:56:00,
2013-09-12 17:01:00,87.3,70.7,29.81,NNE,22,0.0,0.0,58,0.00,,---,0.00,VWS V13.01,2013-09-12 21:01:00,
2013-09-12 17:06:00,87.1,70.5,29.81,NNE,22,0.0,0.0,58,0.00,,---,0.00,VWS V13.01,2013-09-12 21:06:00,
2013-09-12 17:11:00,87.3,71.2,29.81,ESE,112,0.0,0.0,59,0.00,,---,0.00,VWS V13.01,2013-09-12 21:11:00,
2013-09-12 17:16:00,87.1,71.0,29.80,SE,135,0.0,0.0,59,0.00,,---,0.00,VWS V13.01,2013-09-12 21:16:00,
2013-09-12 17:21:00,87.1,71.0,29.80,SSE,158,0.0,0.0,59,0.00,,---,0.00,VWS V13.01,2013-09-12 21:21:00,
2013-09-12 17:26:00,86.9,70.9,29.80,East,90,0.0,0.0,59,0.00,,---,0.00,VWS V13.01,2013-09-12 21:26:00,
2013-09-12 17:31:00,86.7,71.2,29.80,SE,135,0.0,0.0,60,0.00,,---,0.00,VWS V13.01,2013-09-12 21:31:00,
2013-09-12 17:36:00,86.7,71.7,29.80,ESE,112,0.0,0.0,61,0.00,,---,0.00,VWS V13.01,2013-09-12 21:36:00,
2013-09-12 17:41:00,86.5,71.5,29.81,East,90,0.0,0.0,61,0.00,,---,0.00,VWS V13.01,2013-09-12 21:41:00,
2013-09-12 17:46:00,86.4,71.3,29.81,NE,45,0.0,0.0,61,0.00,,---,0.00,VWS V13.01,2013-09-12 21:46:00,
2013-09-12 17:51:00,86.4,71.8,29.81,SE,135,0.0,0.0,62,0.00,,---,0.00,VWS V13.01,2013-09-12 21:51:00,
2013-09-12 17:56:00,86.4,71.8,29.81,ENE,68,0.0,0.0,62,0.00,,---,0.00,VWS V13.01,2013-09-12 21:56:00,
2013-09-12 18:01:00,86.4,71.8,29.81,ESE,112,0.0,0.0,62,0.00,,---,0.00,VWS V13.01,2013-09-12 22:01:00,
2013-09-12 18:06:00,86.2,71.6,29.81,ENE,68,0.0,0.0,62,0.00,,---,0.00,VWS V13.01,2013-09-12 22:06:00,
2013-09-12 18:11:00,86.2,71.6,29.81,ENE,68,0.0,0.0,62,0.00,,---,0.00,VWS V13.01,2013-09-12 22:11:00,
2013-09-12 18:16:00,85.8,71.8,29.81,East,90,0.0,0.0,63,0.00,,---,0.00,VWS V13.01,2013-09-12 22:16:00,
2013-09-12 18:21:00,85.5,71.4,29.81,ENE,68,0.0,0.0,63,0.00,,---,0.00,VWS V13.01,2013-09-12 22:21:00,
2013-09-12 18:26:00,85.1,71.1,29.81,East,90,0.0,0.0,63,0.00,,---,0.00,VWS V13.01,2013-09-12 22:26:00,
2013-09-12 18:31:00,84.9,71.8,29.81,East,90,0.0,0.0,65,0.00,,---,0.00,VWS V13.01,2013-09-12 22:31:00,
2013-09-12 18:36:00,84.9,71.8,29.81,ENE,68,0.0,0.0,65,0.00,,---,0.00,VWS V13.01,2013-09-12 22:36:00,
2013-09-12 18:41:00,84.6,71.5,29.81,NE,45,0.0,0.0,65,0.00,,---,0.00,VWS V13.01,2013-09-12 22:41:00,
2013-09-12 18:46:00,84.6,71.5,29.81,NE,45,0.0,0.0,65,0.00,,---,0.00,VWS V13.01,2013-09-12 22:46:00,
2013-09-12 18:51:00,84.6,72.0,29.80,NE,45,0.0,0.0,66,0.00,,---,0.00,VWS V13.01,2013-09-12 22:51:00,
2013-09-12 18:56:00,84.4,71.8,29.81,NE,45,0.0,0.0,66,0.00,,---,0.00,VWS V13.01,2013-09-12 22:56:00,
2013-09-12 19:01:00,84.0,71.4,29.81,SE,135,0.0,0.0,66,0.00,,---,0.00,VWS V13.01,2013-09-12 23:01:00,
2013-09-12 19:06:00,84.0,71.4,29.81,SE,135,0.0,0.0,66,0.00,,---,0.00,VWS V13.01,2013-09-12 23:06:00,
2013-09-12 19:11:00,83.8,71.7,29.81,SE,135,0.0,0.0,67,0.00,,---,0.00,VWS V13.01,2013-09-12 23:11:00,
2013-09-12 19:16:00,83.7,71.6,29.81,ENE,68,0.0,0.0,67,0.00,,---,0.00,VWS V13.01,2013-09-12 23:16:00,
2013-09-12 19:21:00,83.7,71.6,29.81,ESE,112,0.0,0.0,67,0.00,,---,0.00,VWS V13.01,2013-09-12 23:21:00,
2013-09-12 19:26:00,83.7,71.6,29.81,ESE,112,0.0,0.0,67,0.00,,---,0.00,VWS V13.01,2013-09-12 23:26:00,
2013-09-12 19:31:00,83.7,72.0,29.81,ESE,112,0.0,0.0,68,0.00,,---,0.00,VWS V13.01,2013-09-12 23:31:00,
2013-09-12 19:36:00,83.3,71.6,29.82,ESE,112,0.0,0.0,68,0.00,,---,0.00,VWS V13.01,2013-09-12 23:36:00,
2013-09-12 19:41:00,83.3,71.6,29.82,ESE,112,0.0,0.0,68,0.00,,---,0.00,VWS V13.01,2013-09-12 23:41:00,
2013-09-12 19:46:00,83.3,71.6,29.82,ESE,112,0.0,0.0,68,0.00,,---,0.00,VWS V13.01,2013-09-12 23:46:00,
2013-09-12 19:51:00,83.1,71.5,29.82,ESE,112,0.0,0.0,68,0.00,,---,0.00,VWS V13.01,2013-09-12 23:51:00,
2013-09-12 19:56:00,82.9,71.3,29.82,ESE,112,0.0,0.0,68,0.00,,---,0.00,VWS V13.01,2013-09-12 23:56:00,
2013-09-12 20:01:00,83.1,72.3,29.82,ESE,112,0.0,0.0,70,0.00,,---,0.00,VWS V13.01,2013-09-13 00:01:00,
2013-09-12 20:06:00,82.8,72.0,29.82,ESE,112,0.0,0.0,70,0.00,,---,0.00,VWS V13.01,2013-09-13 00:06:00,
2013-09-12 20:11:00,82.8,72.0,29.82,ESE,112,0.0,0.0,70,0.00,,---,0.00,VWS V13.01,2013-09-13 00:11:00,
2013-09-12 20:16:00,82.8,72.0,29.82,ESE,112,0.0,0.0,70,0.00,,---,0.00,VWS V13.01,2013-09-13 00:16:00,
2013-09-12 20:21:00,82.8,72.0,29.82,ESE,112,0.0,0.0,70,0.00,,---,0.00,VWS V13.01,2013-09-13 00:21:00,
2013-09-12 20:26:00,82.6,71.8,29.82,ESE,112,0.0,0.0,70,0.00,,---,0.00,VWS V13.01,2013-09-13 00:26:00,
2013-09-12 20:31:00,82.4,71.6,29.82,ESE,112,0.0,0.0,70,0.00,,---,0.00,VWS V13.01,2013-09-13 00:31:00,
2013-09-12 20:36:00,82.2,71.9,29.82,ESE,112,0.0,0.0,71,0.00,,---,0.00,VWS V13.01,2013-09-13 00:36:00,
2013-09-12 20:41:00,82.2,71.9,29.82,ESE,112,0.0,0.0,71,0.00,,---,0.00,VWS V13.01,2013-09-13 00:41:00,
2013-09-12 20:46:00,82.2,71.9,29.83,ESE,112,0.0,0.0,71,0.00,,---,0.00,VWS V13.01,2013-09-13 00:46:00,
2013-09-12 20:51:00,82.0,71.7,29.83,ESE,112,0.0,0.0,71,0.00,,---,0.00,VWS V13.01,2013-09-13 00:51:00,
2013-09-12 20:56:00,81.9,71.5,29.83,ESE,112,0.0,0.0,71,0.00,,---,0.00,VWS V13.01,2013-09-13 00:56:00,
2013-09-12 21:01:00,81.9,71.5,29.83,ESE,112,0.0,0.0,71,0.00,,---,0.00,VWS V13.01,2013-09-13 01:01:00,
2013-09-12 21:06:00,81.9,71.9,29.83,SE,135,0.0,0.0,72,0.00,,---,0.00,VWS V13.01,2013-09-13 01:06:00,
2013-09-12 21:11:00,81.7,71.4,29.83,ESE,112,0.0,0.0,71,0.00,,---,0.00,VWS V13.01,2013-09-13 01:11:00,
2013-09-12 21:16:00,81.7,71.4,29.83,ESE,112,0.0,0.0,71,0.00,,---,0.00,VWS V13.01,2013-09-13 01:16:00,
2013-09-12 21:21:00,81.7,70.9,29.83,ESE,112,0.0,0.0,70,0.00,,---,0.00,VWS V13.01,2013-09-13 01:21:00,
2013-09-12 21:26:00,81.5,70.4,29.83,ESE,112,0.0,0.0,69,0.00,,---,0.00,VWS V13.01,2013-09-13 01:26:00,
2013-09-12 21:31:00,81.5,70.4,29.83,ESE,112,0.0,0.0,69,0.00,,---,0.00,VWS V13.01,2013-09-13 01:31:00,
2013-09-12 21:36:00,81.3,69.8,29.83,ESE,112,0.0,0.0,68,0.00,,---,0.00,VWS V13.01,2013-09-13 01:36:00,
2013-09-12 21:41:00,81.1,69.6,29.83,ESE,112,0.0,0.0,68,0.00,,---,0.00,VWS V13.01,2013-09-13 01:41:00,
2013-09-12 21:46:00,81.0,69.4,29.84,ESE,112,0.0,0.0,68,0.00,,---,0.00,VWS V13.01,2013-09-13 01:46:00,
2013-09-12 21:51:00,81.0,69.4,29.84,ESE,112,0.0,0.0,68,0.00,,---,0.00,VWS V13.01,2013-09-13 01:51:00,
2013-09-12 21:55:00,81.0,69.4,29.84,ESE,112,0.0,0.0,68,0.00,,---,0.00,VWS V13.01,2013-09-13 01:55:00,
2013-09-12 22:01:00,80.8,69.2,29.84,ESE,112,0.0,0.0,68,0.00,,---,0.00,VWS V13.01,2013-09-13 02:01:00,
2013-09-12 22:06:00,80.6,69.1,29.83,ESE,112,0.0,0.0,68,0.00,,---,0.00,VWS V13.01,2013-09-13 02:06:00,
2013-09-12 22:11:00,80.6,69.1,29.83,ESE,112,0.0,0.0,68,0.00,,---,0.00,VWS V13.01,2013-09-13 02:11:00,
2013-09-12 22:16:00,80.4,68.9,29.83,ESE,112,0.0,0.0,68,0.00,,---,0.00,VWS V13.01,2013-09-13 02:16:00,
2013-09-12 22:21:00,80.4,69.3,29.83,ESE,112,0.0,0.0,69,0.00,,---,0.00,VWS V13.01,2013-09-13 02:21:00,
2013-09-12 22:26:00,80.2,69.2,29.83,ESE,112,0.0,0.0,69,0.00,,---,0.00,VWS V13.01,2013-09-13 02:26:00,
2013-09-12 22:31:00,80.1,69.0,29.83,ESE,112,0.0,0.0,69,0.00,,---,0.00,VWS V13.01,2013-09-13 02:31:00,
2013-09-12 22:36:00,80.1,69.0,29.83,ESE,112,0.0,0.0,69,0.00,,---,0.00,VWS V13.01,2013-09-13 02:36:00,
2013-09-12 22:41:00,80.1,69.0,29.83,ESE,112,0.0,0.0,69,0.00,,---,0.00,VWS V13.01,2013-09-13 02:41:00,
2013-09-12 22:46:00,79.9,68.8,29.83,ESE,112,0.0,0.0,69,0.00,,---,0.00,VWS V13.01,2013-09-13 02:46:00,
2013-09-12 22:51:00,79.7,68.6,29.83,ESE,112,0.0,0.0,69,0.00,,---,0.00,VWS V13.01,2013-09-13 02:51:00,
2013-09-12 22:56:00,79.7,69.1,29.83,ESE,112,0.0,0.0,70,0.00,,---,0.00,VWS V13.01,2013-09-13 02:56:00,
2013-09-12 23:01:00,79.7,69.5,29.82,ESE,112,0.0,0.0,71,0.00,,---,0.00,VWS V13.01,2013-09-13 03:01:00,
2013-09-12 23:06:00,79.7,69.5,29.82,ESE,112,0.0,0.0,71,0.00,,---,0.00,VWS V13.01,2013-09-13 03:06:00,
2013-09-12 23:11:00,79.7,69.5,29.82,ESE,112,0.0,0.0,71,0.00,,---,0.00,VWS V13.01,2013-09-13 03:11:00,
2013-09-12 23:16:00,79.5,69.3,29.81,ESE,112,0.0,0.0,71,0.00,,---,0.00,VWS V13.01,2013-09-13 03:16:00,
2013-09-12 23:21:00,79.5,69.7,29.81,ESE,112,0.0,0.0,72,0.00,,---,0.00,VWS V13.01,2013-09-13 03:21:00,
2013-09-12 23:26:00,79.5,69.7,29.81,ESE,112,0.0,0.0,72,0.00,,---,0.00,VWS V13.01,2013-09-13 03:26:00,
2013-09-12 23:31:00,79.3,69.5,29.81,ESE,112,0.0,0.0,72,0.00,,---,0.00,VWS V13.01,2013-09-13 03:31:00,
2013-09-12 23:36:00,79.2,69.8,29.81,ESE,112,0.0,0.0,73,0.00,,---,0.00,VWS V13.01,2013-09-13 03:36:00,
2013-09-12 23:41:00,79.2,69.8,29.81,ESE,112,0.0,0.0,73,0.00,,---,0.00,VWS V13.01,2013-09-13 03:41:00,
2013-09-12 23:46:00,79.2,69.8,29.81,ESE,112,0.0,0.0,73,0.00,,---,0.00,VWS V13.01,2013-09-13 03:46:00,
2013-09-12 23:51:00,79.2,70.2,29.81,ESE,112,0.0,0.0,74,0.00,,---,0.00,VWS V13.01,2013-09-13 03:51:00,
2013-09-12 23:56:00,79.2,70.2,29.81,ESE,112,0.0,0.0,74,0.00,,---,0.00,VWS V13.01,2013-09-13 03:56:00,